Location: Olomouc
(49.5830°N, 17.2500°E)
Time: 19:50:05
(UTC+02:00)

ISS - Pass Details

Date: 06 May 2021
Orbit: 417 x 422 km, 51.6° (Epoch: 14 June)

Event Time Altitude Azimuth Distance (km) Brightness Sun altitude
Exits shadow 02:46:18 69° 176° (S) 454 -3.9 -18.9°
Maximum altitude 02:46:25 70° 157° (SSE) 451 -3.8 -18.8°
Drops below altitude 10° 02:49:48 10° 74° (ENE) 1,511 -0.3 -18.6°
Sets 02:51:54 0° 72° (ENE) 2,378 0.9 -18.4°
